Location: Newark
(35.8833°N, 14.5000°E)
Time: 19:14:49
(UTC+00:00)

OTV 5 (USA 277) - Visible Passes

Search period start: 23 October 2019 00:00
Search period end: 02 November 2019 00:00
Orbit: 310 x 324 km, 54.5° (Epoch: 17 October)

Date Brightness Start Highest point End Pass type
(mag) Time Alt. Az. Time Alt. Az. Time Alt. Az.
23 Oct ? 04:18:45 12° SW 04:18:45 12° SW 04:19:31 10° SSW visible
25 Oct ? 17:54:19 10° SSW 17:54:20 10° SSW 17:54:20 10° SSW visible
26 Oct ? 18:08:36 10° SW 18:09:16 16° SW 18:09:16 16° SW visible
27 Oct ? 16:49:45 10° S 16:51:43 18° SE 16:53:07 13° E visible
27 Oct ? 18:23:47 10° W 18:24:02 12° W 18:24:02 12° W visible
28 Oct ? 17:03:27 10° SW 17:06:07 65° SE 17:07:46 21° NE visible
29 Oct ? 17:18:10 10° WSW 17:20:40 33° NW 17:22:16 18° NNE visible
30 Oct ? 17:33:53 10° WNW 17:35:24 14° NW 17:36:39 11° N visible
